Regional Weather Roundup
Issued by NWS

Home | Current Version | Previous Version | Graphics & Text | Print | Product List | Glossary On
Versions: 1 2 3 4 5 6 7 8 9 10 11 12 13 14 15 16 17 18 19 20 21 22 23 24 25 26 27 28 29 30 31 32 33 34 35 36 37 38 39 40 41 42 43 44 45 46 47 48 49 50
000
ASUS43 KDMX 300407
RWRIA

WEATHER ROUNDUP FOR IOWA
NATIONAL WEATHER SERVICE DES MOINES IA
1100 PM CDT TUE JUL 29 2014

NOTE: "FAIR" INDICATES FEW OR NO CLOUDS BELOW 12,000 FEET WITH NO
SIGNIFICANT WEATHER AND/OR OBSTRUCTIONS TO VISIBILITY.

* - THESE STATIONS ARE NOT NWS STATIONS...THUS NOT UNDER NWS
QUALITY CONTROL.  THEY ALSO DO NOT REPORT WEATHER SUCH
AS PRECIPITATION OR FOG.

IAZ001>003-012>014-020>022-031>034-043>046-300500-
   NORTHWEST IOWA

CITY           SKY/WX    TMP DP  RH WIND       PRES   REMARKS
CARROLL *      CLEAR     57  55  94 W7        30.12S
CHEROKEE *     CLEAR     57  55  94 CALM      30.13S
DENISON *      CLEAR     57  57 100 CALM      30.12S
LE MARS *      CLEAR     57  55  94 CALM      30.14S
ORANGE CITY *  CLEAR     63  54  72 CALM      30.14S
SHELDON *      CLEAR     57  54  88 CALM      30.13R
SIOUX CITY     CLEAR     59  55  87 CALM      30.14R
SPENCER        CLEAR     57  55  93 W6        30.13R
STORM LAKE *   CLEAR     59  57  94 W7        30.14S
$$

IAZ055>058-069>071-079>083-090>094-300500-
   SOUTHWEST IOWA

CITY           SKY/WX    TMP DP  RH WIND       PRES   REMARKS
ATLANTIC *     CLEAR     59  57  94 CALM      30.12S
AUDUBON *      CLEAR     57  54  88 CALM      30.14S
CLARINDA *     CLEAR     57  55  94 CALM      30.14R
COUNCIL BLFS *   N/A     66  59  77 CALM      30.13R
CRESTON *      CLEAR     63  55  77 NW5       30.13R
HARLAN  *      CLEAR     59  57  94 CALM      30.17S
LAMONI         CLEAR     64  57  78 CALM      30.12R
RED OAK *      CLEAR     61  55  82 CALM      30.13S
SHENANDOAH *   CLEAR     63  59  88 CALM      30.14R
$$

IAZ047>049-059>061-072>074-084-300500-
   CENTRAL IOWA

CITY           SKY/WX    TMP DP  RH WIND       PRES   REMARKS
AMES           CLEAR     61  57  87 W5        30.10S
ANKENY *       CLEAR     61  57  88 CALM      30.10S
CHARITON *     CLEAR     63  57  82 W5        30.11R
DES MOINES     CLEAR     67  56  67 CALM      30.10S
GRINNELL*      CLEAR     61  57  88 NW3       30.10S
KNOXVILLE *    CLEAR     63  57  82 W3        30.09S
MARSHALLTOWN   CLEAR     61  58  90 W3        30.09S
PELLA *        CLEAR     64  57  77 N3        30.11S
PERRY *          N/A     59  57  94 NW5       30.11S
$$

IAZ004>006-015-016-023>025-035-036-300500-
   NORTH CENTRAL IOWA

CITY           SKY/WX    TMP DP  RH WIND       PRES   REMARKS
ALGONA *       CLEAR     64  57  77 NW6       30.11S
CLARION *      CLEAR     57  57 100 CALM      30.11R
ESTHERVILLE    CLEAR     58  55  90 NW7       30.12R
FORT DODGE *   CLEAR     57  54  88 CALM      30.12S
MASON CITY     CLEAR     58  55  90 W6        30.12R
FOREST CITY *  CLEAR     55  55 100 CALM      30.11S
IOWA FALLS *     N/A     61  57  88 CALM      30.11S
$$

IAZ007>011-017>019-026>030-037>042-050>054-066-300500-
   NORTHEAST IOWA

CITY           SKY/WX    TMP DP  RH WIND       PRES   REMARKS
CEDAR RAPIDS   CLEAR     61  56  83 W6        30.07R
CHARLES CITY * CLEAR     61  57  88 W6        30.10R
CLINTON *      CLEAR     61  57  88 NE9       30.08R
DECORAH *      CLOUDY    64  57  77 CALM      30.07R
DUBUQUE        PTCLDY    63  57  81 NE9       30.08R
MONTICELLO *   CLEAR     61  59  94 CALM      30.06S
OELWEIN *      CLEAR     61  57  88 NW7       30.09R
WATERLOO       CLEAR     62  57  83 W5        30.08R
$$

IAZ064-065-067-068-078-300500-
   EAST CENTRAL IOWA

CITY           SKY/WX    TMP DP  RH WIND       PRES   REMARKS
DAVENPORT      CLEAR     61  57  87 W7        30.06R
IOWA CITY      CLEAR     63  59  87 W6        30.08S
MT. PLEASANT * CLEAR     63  59  88 W5        30.08S
MUSCATINE *    CLEAR     66  59  77 W7        30.07R
QUAD CITIES    CLEAR     63  57  81 W5        30.05R
$$

IAZ062-063-075>077-085>089-095>099-300500-
   SOUTHEAST IOWA

CITY           SKY/WX    TMP DP  RH WIND       PRES   REMARKS
BURLINGTON     CLEAR     63  58  83 W5        30.07S
FAIRFIELD *    CLEAR     61  59  94 W6        30.09S
FORT MADISON * CLEAR     64  61  88 W3        30.09S
KEOKUK *       CLEAR     63  61  94 CALM      30.08S
OSKALOOSA *      N/A     63  57  82 CALM      30.09F
CENTERVILLE *  CLEAR     59  57  94 W3        30.12S
OTTUMWA        CLEAR     60  57  89 W6        30.09R
WASHINGTON *   CLEAR     63  59  88 W5        30.08S
$$

ABBREVIATIONS USED IN REMARKS
   TC - TEMPERATURES IN CELSIUS
  WCI - WIND CHILL INDEX
   HX - HEAT INDEX
  VSB - VISIBILITY
$$




USA.gov is the U.S. government's official web portal to all federal, state and local government web resources and services.